Theta_e
292 292 293 294 297 300 302 302 303 304 306 307 308 308 308 308 309 308 309 310 310 310 311 310 310 309 307 305 304 303 301 299 298 298 295 293 292 290 289 288 287 286 285 285 285 285 285 285 285 285 285 285 285 284 283 282 283 284 283 282 283 282
291 291 292 293 296 300 302 302 303 304 306 306 306 307 307 306 306 306 308 307 307 306 306 306 307 305 303 302 302 301 300 297 296 294 293 291 289 289 288 287 286 285 285 284 285 284 284 284 283 283 284 284 283 283 284 283 284 284 283 282 281 282
289 288 289 290 292 297 301 302 303 304 303 305 305 305 304 305 305 305 305 305 304 304 304 302 301 300 300 300 300 298 296 294 293 293 290 287 287 286 286 286 286 285 285 284 284 284 284 284 283 282 283 283 283 283 283 283 283 283 282 282 282 282
288 288 287 287 289 293 298 301 302 303 302 303 303 304 304 304 303 304 302 303 303 303 301 299 299 298 298 297 296 294 293 291 290 287 287 287 285 286 286 286 284 284 284 284 284 283 283 283 283 282 283 283 283 283 282 282 283 283 282 282 282 281
288 288 289 289 290 294 297 298 301 302 301 300 301 302 301 302 302 301 301 301 300 298 297 297 296 295 295 294 292 291 290 288 287 287 287 286 285 284 285 285 284 284 284 283 283 283 283 283 282 282 283 283 283 283 282 282 282 283 282 281 281 281
286 287 288 289 289 291 295 297 299 300 300 300 298 299 298 297 298 298 299 298 296 295 294 294 293 293 292 292 290 289 287 286 286 286 286 285 285 284 283 283 284 283 283 283 283 283 283 282 282 282 282 282 282 282 282 282 282 282 281 281 281 281
287 289 289 289 288 289 292 296 297 298 297 296 297 295 294 294 294 295 295 294 293 292 292 291 291 292 291 290 289 287 286 286 285 285 285 285 284 283 283 282 283 283 283 283 283 282 282 282 282 282 282 282 281 282 282 281 281 281 281 281 281 282
288 288 288 289 288 289 291 293 294 293 294 294 293 294 292 291 292 293 293 293 292 291 290 290 291 291 290 288 287 286 286 285 285 285 284 285 284 283 283 282 282 283 282 282 282 282 282 281 282 282 282 281 281 281 281 281 281 281 281 281 281 281
288 289 289 289 288 288 289 290 292 291 291 291 291 292 292 291 292 291 292 292 292 291 290 290 290 290 289 287 286 285 285 285 284 284 284 283 283 283 282 282 282 281 282 282 282 282 282 282 281 281 281 281 282 281 281 281 281 281 280 281 280 280
289 288 289 287 288 287 286 287 289 291 292 292 290 290 290 290 291 291 291 291 291 291 290 289 289 288 286 286 286 285 285 284 284 283 282 282 282 282 282 282 281 281 281 281 281 281 281 281 281 281 281 281 281 281 281 281 280 280 280 280 280 279
290 290 289 289 287 287 287 287 287 287 289 290 290 289 290 290 291 290 291 291 291 290 289 288 286 286 285 285 285 284 284 283 283 282 282 282 282 282 281 281 281 281 280 280 281 280 281 281 282 282 281 282 281 281 281 281 280 280 280 279 279 278
292 291 291 290 289 288 287 288 288 288 288 288 288 289 289 289 290 290 290 290 290 288 287 286 285 285 285 285 284 284 283 283 282 282 281 281 281 281 281 280 280 280 280 280 279 279 280 281 282 285 288 286 282 281 281 281 280 280 279 279 278 278
292 291 291 291 290 289 289 289 289 288 288 288 287 287 287 288 288 289 289 289 288 286 285 285 285 284 284 284 284 283 283 282 282 281 281 281 280 280 280 280 279 279 279 279 279 279 280 282 283 288 288 288 287 282 280 280 279 279 279 278 277 277
292 291 292 291 291 290 289 289 289 288 288 287 287 286 285 286 287 287 287 286 285 285 285 285 284 284 284 283 283 283 282 282 281 281 280 280 279 279 279 279 279 279 278 278 278 278 279 281 287 288 288 288 287 283 280 279 279 278 278 277 277 277
292 293 292 291 291 290 290 290 288 288 288 287 287 285 286 287 287 287 286 285 285 285 285 284 284 284 283 283 282 282 281 281 281 280 280 280 279 278 278 278 278 278 278 278 277 277 278 280 286 287 287 287 286 284 281 278 278 278 278 277 277 276
292 292 291 291 291 290 289 288 289 288 287 287 286 286 286 286 286 286 285 285 285 285 284 284 284 283 283 282 281 281 281 281 280 280 279 278 278 278 277 277 277 277 277 277 277 277 278 279 285 286 287 286 285 283 281 277 278 278 278 278 277 277
292 289 289 290 290 288 288 287 288 287 287 287 286 286 286 286 285 285 285 284 284 284 284 283 283 282 282 281 281 280 280 280 279 278 278 278 278 277 277 277 276 276 276 276 276 277 278 281 285 286 286 286 284 283 281 277 278 278 278 278 277 276
292 292 292 288 289 288 289 288 287 287 287 286 286 285 286 286 285 285 285 284 284 284 284 283 282 282 281 281 280 280 280 279 278 278 276 276 276 276 276 275 276 275 275 275 275 275 276 279 284 285 285 285 283 282 278 277 278 277 277 277 277 277
291 291 288 288 289 288 288 288 287 287 286 286 286 286 285 285 285 285 284 285 284 284 283 283 282 281 281 280 280 279 279 278 277 276 276 276 276 276 275 275 274 274 274 273 274 274 275 276 282 284 284 284 283 280 277 277 276 276 276 276 277 276
287 287 290 288 288 288 288 287 287 287 286 285 285 285 285 285 285 285 285 285 284 284 283 283 282 281 280 280 280 279 279 277 276 276 276 277 276 275 275 274 274 273 273 274 274 275 275 277 281 283 284 283 282 279 277 276 275 275 276 276 277 277
289 288 288 288 288 287 287 287 287 287 286 285 285 285 285 285 285 285 285 285 284 283 283 282 281 281 280 280 280 279 278 277 277 275 275 275 275 274 273 273 274 273 273 274 276 277 276 276 278 282 283 283 282 279 277 276 274 275 276 276 275 276
287 286 288 288 289 287 287 287 287 287 287 286 285 285 285 286 287 287 286 285 283 283 282 281 281 280 280 280 279 278 277 275 274 274 274 273 274 273 273 274 274 274 274 275 275 275 275 275 276 279 282 282 281 281 277 276 275 275 275 276 275 274
289 289 289 288 287 287 287 287 287 287 287 286 285 285 287 287 286 285 284 283 282 281 281 280 280 279 279 278 277 277 275 275 275 274 273 273 273 273 273 274 274 274 274 275 275 275 275 275 274 277 280 281 281 281 279 276 276 276 276 275 274 274
286 286 285 284 286 287 287 287 287 287 286 285 286 286 284 285 284 283 282 281 281 280 279 278 278 277 277 275 275 275 274 273 274 274 273 273 273 273 273 273 274 274 274 274 274 274 273 275 276 275 278 279 280 280 280 277 277 278 276 275 274 274
285 284 283 283 285 286 286 287 287 286 286 286 286 284 284 283 282 281 281 280 279 278 277 276 276 275 275 275 275 275 274 273 273 273 273 273 273 274 273 274 274 273 273 273 273 273 273 273 273 276 275 278 279 279 279 279 278 279 277 275 274 273
282 282 281 282 283 285 286 287 287 286 286 285 282 282 281 281 280 280 279 278 277 276 275 274 274 274 274 274 274 274 273 273 272 272 273 273 273 273 273 273 273 273 272 272 272 273 273 273 272 274 276 276 278 278 279 279 278 278 277 276 275 274
281 281 280 281 281 282 283 283 286 284 284 281 280 280 280 279 279 278 277 277 275 275 273 273 273 273 273 273 274 273 273 272 272 272 272 273 273 273 273 272 272 272 272 272 272 272 272 272 272 272 274 276 276 277 277 278 278 277 277 274 274 275
280 280 280 279 280 280 280 281 282 284 282 279 280 279 279 278 278 277 276 275 274 273 272 272 271 271 272 272 273 273 274 273 273 273 273 273 274 273 272 272 272 272 272 271 272 271 271 271 271 271 272 274 275 275 276 276 276 276 276 276 275 276
280 279 279 279 278 279 279 280 280 280 278 278 279 279 278 278 277 277 275 274 273 272 272 272 272 271 271 271 271 272 273 273 274 274 273 273 273 273 272 272 271 271 271 271 270 270 270 269 270 271 272 273 274 274 275 275 274 275 275 274 274 274
278 277 277 278 277 277 277 277 275 276 277 277 278 277 277 277 277 276 274 273 273 272 272 273 272 272 271 271 272 272 272 273 274 274 273 273 273 273 272 272 271 271 271 271 270 269 268 268 268 270 271 273 274 274 274 274 274 274 272 271 273 271
275 275 276 275 274 274 274 273 273 275 277 277 277 277 277 277 275 275 273 272 272 271 272 272 272 272 271 271 271 271 272 273 274 274 274 273 273 274 274 273 273 273 273 272 270 268 268 268 269 270 274 274 276 275 273 273 273 272 272 274 274 268
273 273 273 273 272 272 272 271 272 273 274 275 276 277 277 275 274 273 272 272 272 271 271 271 271 270 271 271 270 270 270 273 275 273 273 271 274 275 275 276 272 273 271 270 270 270 270 270 271 275 277 277 277 276 276 276 275 275 273 273 272 267
271 271 271 270 270 270 270 270 270 271 271 273 274 276 276 275 274 273 272 271 271 271 271 271 270 270 269 270 270 270 270 271 273 275 275 274 275 276 276 276 275 274 273 271 268 270 274 274 276 277 277 277 276 276 275 275 275 275 273 272 265 260
271 272 271 270 269 268 269 269 269 270 270 271 272 273 274 274 275 274 272 272 271 271 270 270 269 269 269 269 270 270 271 271 271 273 275 276 277 277 277 277 276 276 275 274 272 271 272 275 276 276 276 276 275 275 274 274 274 273 272 270 269 258
271 270 269 268 268 268 268 268 268 268 269 269 270 271 271 272 273 273 272 271 270 270 270 269 269 268 269 268 269 269 271 272 272 271 271 274 277 278 278 277 277 276 276 275 275 275 274 275 275 276 276 275 275 274 273 273 273 272 271 269 260 256
269 268 268 267 267 268 267 268 267 267 268 268 269 269 270 270 270 270 270 270 270 270 269 269 269 268 268 269 269 270 271 272 273 272 271 271 273 274 274 276 277 276 277 276 276 275 275 276 276 275 275 275 274 273 273 272 270 271 270 265 257 255
268 268 267 268 267 267 267 268 267 266 265 266 267 268 268 268 269 267 268 269 269 269 269 269 269 268 268 268 269 270 271 272 272 272 271 271 271 270 268 269 271 274 276 274 274 275 275 275 275 274 274 274 273 272 272 270 264 260 258 257 256 256
267 267 267 267 267 267 267 267 266 265 265 265 265 266 267 266 267 266 267 267 268 268 268 267 267 267 267 267 268 270 271 271 270 270 271 271 271 270 268 267 268 268 273 274 273 274 274 275 274 274 274 273 272 271 270 261 259 258 256 256 255 255
Wind_Speed
4 5 5 4 4 5 5 4 5 4 4 5 6 8 7 8 7 6 6 7 7 8 9 10 8 7 8 7 9 9 9 9 8 7 8 8 7 7 7 7 6 6 6 6 6 5 5 5 5 5 6 6 7 5 5 3 4 6 6 4 5 3
4 5 5 6 6 4 4 5 5 5 5 5 5 5 5 5 7 7 8 7 7 7 6 6 7 8 9 9 10 9 9 9 9 9 9 8 7 6 7 7 7 7 7 5 6 6 5 6 4 5 6 6 6 5 5 4 5 7 6 4 4 4
4 3 2 2 1 2 4 5 5 5 3 5 5 7 7 7 6 7 7 7 7 9 9 9 8 8 8 8 7 9 9 8 8 8 8 7 6 7 7 8 8 7 7 6 5 6 6 6 5 4 5 6 6 5 5 4 6 6 4 4 5 5
3 1 1 1 2 3 4 4 4 5 4 4 5 6 6 7 6 6 7 6 8 8 9 9 7 8 8 9 8 9 8 8 8 8 8 8 6 7 8 8 7 6 6 7 6 5 6 5 6 4 5 7 7 6 4 5 5 5 4 4 5 4
3 4 4 4 4 5 4 4 5 5 4 4 4 5 4 4 6 5 6 7 7 8 7 8 9 8 9 10 9 9 9 8 7 7 10 8 7 5 7 8 7 6 6 7 6 6 6 5 6 4 6 6 6 6 5 4 5 6 5 5 4 4
2 3 4 4 3 4 4 4 4 4 4 4 3 4 4 4 4 5 6 7 7 7 8 8 8 9 8 10 8 10 8 8 8 7 8 8 7 8 6 6 7 6 6 7 6 6 6 6 5 5 5 6 6 5 5 5 5 5 5 4 4 4
4 5 5 5 4 4 4 5 4 5 4 4 4 4 3 4 4 4 5 7 8 6 8 8 7 9 9 9 8 9 8 8 8 7 8 9 8 7 8 5 5 6 6 8 7 6 6 5 5 6 6 5 5 5 5 4 4 4 4 4 4 4
5 5 5 5 5 6 5 4 4 4 4 4 4 5 4 4 4 4 7 7 8 7 7 7 7 8 9 9 9 9 9 8 8 8 6 8 10 7 6 7 5 6 7 6 6 6 6 5 5 6 6 5 4 4 4 4 4 4 4 4 3 3
9 9 7 6 5 5 6 6 5 4 4 5 4 4 6 6 6 5 6 7 7 8 7 8 7 8 8 8 8 8 7 7 7 8 8 7 9 9 8 6 7 4 7 6 6 6 6 6 6 6 5 4 4 4 4 5 4 4 4 3 3 3
6 7 7 6 7 6 5 5 6 7 7 8 6 5 5 6 6 6 6 7 7 7 8 7 7 8 8 7 7 7 7 7 7 7 7 7 8 8 8 8 8 6 6 6 6 5 5 6 6 5 4 4 4 5 5 4 4 4 3 3 3 3
9 8 8 8 6 7 7 6 6 4 4 4 6 6 7 7 7 7 7 7 8 7 7 7 6 6 7 8 8 8 8 7 7 7 7 7 6 6 7 7 8 9 8 6 6 6 5 6 5 4 4 5 4 4 4 3 3 3 4 3 3 3
8 9 8 8 10 9 8 7 7 7 7 7 6 7 6 7 8 8 8 8 7 7 7 7 7 7 8 9 9 8 8 8 8 8 8 7 7 7 7 7 6 7 9 8 6 6 6 5 4 6 9 7 4 4 3 3 4 3 3 3 3 3
8 8 9 10 10 10 9 8 8 7 7 8 8 8 7 7 8 7 8 8 7 7 7 7 7 8 9 8 8 8 9 9 8 8 8 7 7 8 7 8 8 7 7 7 7 7 5 4 4 9 10 10 9 4 3 4 4 3 3 3 3 3
10 12 13 12 10 9 9 10 9 9 10 8 8 7 7 7 7 8 7 7 7 7 8 8 8 9 8 8 9 9 8 8 8 8 8 8 8 7 6 8 7 7 7 7 7 6 5 4 7 10 9 9 10 7 4 4 4 4 4 3 3 2
14 13 10 7 10 11 11 9 8 11 9 8 7 6 8 8 8 7 7 7 8 9 8 9 10 9 9 9 9 8 8 8 8 8 8 8 7 7 8 7 8 7 6 7 8 6 4 4 9 10 10 10 10 10 6 4 3 5 4 3 2 2
9 9 9 9 9 10 9 10 11 8 6 7 7 9 8 9 7 8 8 8 8 9 9 9 9 10 9 8 8 8 9 8 9 7 6 7 6 8 8 6 8 7 7 7 7 7 5 4 8 10 9 10 10 10 6 3 4 4 4 3 2 2
8 6 8 11 9 7 8 7 7 7 8 9 9 8 9 8 8 8 8 9 9 9 9 9 9 9 9 9 9 8 8 8 7 7 7 7 8 9 9 9 8 7 6 7 6 7 6 4 9 9 9 9 10 10 7 4 4 3 3 2 2 2
12 12 11 5 7 8 9 10 8 9 8 7 8 8 8 8 9 9 8 9 10 10 10 10 10 9 9 10 9 9 9 8 8 9 7 6 6 5 6 5 6 8 7 6 6 7 6 4 9 9 9 9 10 10 5 4 4 3 3 2 2 2
7 7 5 7 9 10 10 8 9 8 8 9 8 9 9 8 9 9 10 10 10 10 10 10 11 11 10 10 10 10 9 9 8 6 6 8 7 8 7 7 6 6 7 7 5 7 6 4 6 8 8 9 11 7 4 3 3 3 2 3 3 2
5 5 8 8 9 9 8 9 11 10 10 10 9 10 9 10 10 9 10 10 10 10 10 10 10 11 10 10 11 11 8 6 5 6 6 9 9 8 7 7 7 5 5 6 6 6 7 5 5 8 8 9 10 8 4 3 3 3 3 4 4 3
6 6 6 7 9 9 9 10 11 11 10 9 10 10 11 12 11 11 12 11 10 10 9 9 9 9 11 11 10 10 11 9 9 6 5 6 6 8 7 7 8 7 4 4 5 7 7 5 4 7 8 9 9 7 4 3 2 4 4 3 3 4
5 4 7 10 10 8 10 11 11 10 10 10 10 11 12 14 15 12 9 8 9 9 9 8 10 9 10 11 9 8 8 7 8 7 7 6 6 8 7 6 7 8 6 5 5 5 4 5 3 3 8 8 8 8 4 2 3 5 4 3 3 3
6 9 9 6 7 9 9 10 11 11 10 10 11 15 15 9 6 7 8 7 8 8 8 7 8 10 7 6 8 8 7 7 8 8 8 9 7 7 7 7 6 7 6 5 4 4 3 3 4 3 7 7 7 7 6 2 4 3 3 2 2 2
3 3 3 4 7 8 9 9 10 8 8 9 13 10 4 6 7 7 7 8 8 7 7 7 6 6 7 7 9 9 8 5 6 7 8 7 8 9 8 7 6 7 6 4 3 3 4 3 5 2 5 6 6 5 6 4 3 3 3 2 1 2
3 3 3 3 6 6 8 9 9 8 8 11 8 4 6 6 7 8 8 8 8 8 8 7 8 8 7 8 8 10 10 8 8 7 7 9 8 9 9 8 7 7 6 4 3 2 2 3 2 5 3 5 4 5 6 6 4 5 3 1 1 2
3 4 3 3 4 5 6 10 9 8 9 8 4 6 6 7 7 8 8 8 8 8 8 8 8 8 7 9 9 9 10 9 8 7 7 7 8 8 8 6 6 7 6 5 4 3 2 1 2 2 4 3 4 4 5 4 5 5 2 1 1 1
5 5 4 2 3 3 4 4 7 6 7 4 6 7 8 8 8 8 8 8 8 8 7 7 7 7 7 7 9 10 9 9 9 9 6 7 6 7 8 8 9 9 7 5 5 4 3 2 2 1 1 3 3 3 3 4 4 4 4 1 1 3
5 5 5 3 2 3 4 3 4 7 5 5 6 7 8 9 9 9 9 8 8 8 8 8 6 6 6 7 6 7 8 11 11 9 9 7 6 7 8 8 8 6 8 5 4 4 4 3 2 2 1 2 2 2 2 4 3 2 3 3 3 6
5 4 4 4 1 2 3 4 2 3 6 6 6 6 7 8 9 8 7 8 8 7 8 10 9 8 7 7 6 5 6 6 7 8 9 8 8 8 7 7 8 8 8 8 7 4 4 4 4 3 2 2 3 1 1 1 1 2 2 2 3 2
4 4 4 3 1 2 3 3 3 5 6 6 7 7 8 9 9 10 9 9 8 8 8 8 9 9 8 7 7 8 7 6 6 9 10 11 11 10 9 8 9 9 9 8 9 7 6 6 4 4 4 3 3 2 2 1 2 2 0 1 2 2
4 4 4 3 0 2 3 3 3 4 7 7 7 8 9 8 7 7 8 8 7 8 7 7 8 8 8 8 6 4 3 7 8 7 5 0 2 5 10 11 10 8 7 8 10 12 9 5 5 6 6 5 5 5 3 2 3 2 1 2 1 4
3 3 3 1 1 2 3 3 3 2 3 5 6 8 9 8 8 7 8 7 7 7 7 6 6 6 6 7 7 6 3 3 3 2 4 4 3 2 2 5 6 7 8 8 5 6 6 8 6 9 11 8 6 5 4 4 4 3 2 0 4 6
2 3 3 1 1 2 2 2 2 3 2 4 5 6 7 8 7 6 6 6 7 8 8 7 7 6 6 5 6 6 6 6 3 4 5 5 5 6 7 7 6 11 10 8 8 5 5 8 11 12 10 9 7 6 5 5 4 4 3 2 5 4
2 2 2 1 1 1 1 2 1 1 1 1 2 3 5 6 7 7 7 7 5 6 6 5 5 5 6 5 5 6 6 7 6 5 6 7 7 8 8 8 11 12 11 10 9 7 6 9 11 11 10 10 8 7 6 6 6 6 4 3 7 5
1 2 3 2 2 1 1 1 0 0 1 1 1 2 4 5 4 5 5 5 5 5 6 6 6 6 6 7 7 7 7 9 9 9 7 5 7 9 9 10 11 12 11 12 13 12 10 10 11 12 11 10 9 9 7 8 8 7 6 7 6 6
2 3 3 2 2 2 1 1 0 0 0 1 1 2 4 4 4 3 5 6 7 7 6 6 6 7 7 6 7 7 8 8 8 8 9 9 7 6 6 9 11 11 12 13 13 13 13 13 12 12 12 11 10 9 9 9 6 9 7 7 5 5
3 3 3 4 3 2 2 1 0 1 1 1 1 1 1 2 3 2 4 7 7 6 7 6 6 6 6 6 7 7 7 7 6 7 10 11 12 12 10 8 8 10 13 10 10 12 13 13 13 12 11 11 11 10 11 10 6 4 3 4 2 3
1 0 0 1 1 1 0 0 1 3 3 3 3 3 3 3 3 4 4 4 6 5 5 6 6 6 6 7 7 6 5 4 5 6 8 6 6 7 8 6 6 4 7 12 10 13 12 13 12 12 12 11 11 12 12 6 5 5 5 4 2 3
Wind_Direction
197 190 191 190 188 180 170 168 174 204 203 196 191 191 193 186 184 179 177 175 170 169 167 161 154 147 140 137 137 139 138 140 141 136 127 116 119 125 128 122 116 113 107 112 115 115 111 105 106 107 98 98 98 90 94 91 93 79 70 49 59 49
205 194 185 180 182 170 167 168 174 198 195 184 188 178 170 169 171 167 165 162 150 142 135 137 142 142 141 144 144 139 138 144 138 131 125 132 129 128 127 128 128 127 125 127 127 118 112 105 99 102 104 92 90 97 82 66 75 70 65 56 58 53
218 219 214 207 194 167 166 168 181 182 183 183 177 169 167 171 167 159 153 143 143 143 145 139 134 131 130 130 132 127 130 131 128 124 128 121 132 135 135 132 132 132 132 132 124 119 117 109 102 95 101 93 92 78 87 76 74 79 63 62 45 41
208 180 82 85 136 174 184 181 179 178 185 180 170 165 170 164 161 155 142 141 144 144 137 133 129 133 133 129 126 123 126 128 126 130 128 132 142 145 137 129 129 130 132 121 117 110 105 101 98 101 98 98 93 80 70 75 78 76 67 58 47 35
190 184 182 180 183 185 187 183 183 183 175 172 178 168 165 158 149 141 139 137 136 130 128 130 133 132 131 126 127 126 128 127 128 136 133 137 141 132 126 130 130 132 125 116 115 111 102 98 96 88 91 90 93 92 77 76 76 72 64 55 46 35
176 168 189 190 193 190 191 192 181 177 176 175 161 158 139 117 122 131 125 122 119 126 128 130 133 131 132 128 132 130 133 133 135 135 132 137 135 123 111 120 131 129 127 119 113 106 107 101 98 89 84 91 96 92 88 80 77 77 76 70 50 34
189 203 198 197 194 194 193 192 194 176 178 157 159 135 130 124 119 124 122 127 127 131 132 135 139 134 132 130 133 135 137 138 135 138 140 134 121 121 122 121 130 126 123 119 119 114 107 113 112 102 92 83 84 93 93 88 83 76 70 63 52 41
203 203 206 201 199 194 189 191 187 181 166 170 152 144 136 137 127 136 135 136 135 137 136 138 137 137 138 138 139 142 142 138 139 138 131 129 125 123 128 132 132 126 118 114 115 113 114 113 107 100 99 99 100 98 96 92 83 78 71 63 54 45
212 211 205 203 192 189 189 183 179 176 169 167 159 160 159 158 151 149 146 145 143 143 147 149 148 141 140 142 139 135 134 136 140 136 131 129 129 133 133 130 118 116 116 117 114 114 116 109 99 98 102 107 103 101 91 79 75 72 71 71 62 53
218 214 211 203 201 189 188 187 182 178 178 176 174 165 164 163 155 156 153 150 150 153 152 152 145 140 139 135 132 134 135 136 134 126 123 127 131 135 136 134 125 120 110 112 107 110 107 100 94 96 101 99 95 88 80 80 79 77 75 71 59 50
213 209 206 206 193 194 190 183 185 182 179 172 169 166 174 166 157 159 159 158 159 160 153 144 139 133 133 134 135 138 142 138 129 125 126 127 127 125 126 127 126 122 111 103 107 104 93 91 95 104 103 96 88 91 93 94 88 79 70 62 56 45
216 213 207 202 198 194 188 185 184 182 178 178 177 177 173 162 168 161 163 164 162 153 151 144 141 141 139 141 146 148 143 136 133 131 130 131 129 127 128 122 118 118 122 118 108 97 93 94 95 102 105 106 111 102 103 96 82 76 71 62 47 30
220 214 211 211 202 196 186 187 185 183 186 184 179 178 170 164 161 164 162 166 157 150 145 144 146 144 149 150 145 145 141 137 136 134 132 133 133 132 130 124 120 118 118 118 117 108 102 97 95 96 96 99 106 108 103 96 87 82 74 64 48 22
218 216 215 209 202 193 190 187 186 183 194 181 179 172 159 164 164 165 170 157 148 150 152 152 149 152 153 151 152 148 142 137 136 139 140 137 132 131 125 118 120 120 120 113 108 107 107 101 102 102 101 103 105 104 98 93 91 79 73 62 45 19
219 218 217 205 200 197 199 184 177 196 189 175 172 144 163 172 170 165 160 155 157 159 158 156 159 157 157 159 151 145 140 142 142 144 146 144 140 131 124 128 123 122 119 118 118 113 111 104 107 106 106 107 102 92 91 89 85 78 66 51 38 11
224 219 214 210 205 200 185 182 188 182 157 155 152 165 173 169 171 167 163 159 166 165 163 162 162 161 158 149 144 145 147 151 156 149 138 133 133 127 125 124 122 123 122 124 122 119 117 107 110 110 109 109 101 93 91 89 79 73 68 65 33 13
219 214 211 212 198 177 168 187 178 157 157 162 166 172 168 174 164 169 168 169 169 166 165 165 164 157 152 150 150 151 155 154 144 144 148 147 144 143 141 140 131 127 125 125 124 119 114 109 111 111 111 111 103 93 93 83 83 76 75 55 54 14
210 209 214 173 161 181 184 184 166 163 167 157 163 164 174 173 176 176 168 172 173 173 171 166 161 157 156 156 155 156 156 155 158 152 149 129 116 110 114 106 115 129 130 130 129 119 111 109 113 113 113 110 104 99 94 96 88 88 89 58 68 30
209 207 172 170 180 176 187 169 162 158 151 163 170 170 174 175 182 182 179 180 177 175 171 169 165 164 163 160 157 160 160 157 150 146 146 132 135 134 132 134 128 132 132 134 134 123 116 110 113 115 113 111 109 101 99 100 97 97 101 67 49 38
193 180 175 175 182 183 165 161 162 160 164 172 169 169 176 181 191 185 185 185 179 175 172 174 169 164 162 163 166 163 157 147 138 150 162 147 146 139 138 131 121 122 131 134 134 135 125 120 115 117 113 111 110 106 102 99 111 93 79 64 39 45
186 176 164 165 182 183 164 160 161 164 173 170 173 176 181 192 191 187 188 183 175 176 172 167 163 165 166 168 166 160 156 159 156 148 137 132 127 130 132 130 124 123 119 121 122 125 120 118 108 111 112 108 107 105 103 101 123 95 66 47 30 4
113 135 170 189 194 159 160 159 164 171 174 178 172 184 195 198 196 187 173 167 167 165 163 165 166 168 170 167 154 151 149 137 135 147 138 129 131 134 134 130 130 127 125 121 114 114 119 120 107 103 110 103 96 101 108 128 91 69 55 28 12 357
174 182 193 188 152 156 159 161 164 180 181 175 180 201 205 191 158 155 165 156 155 159 162 160 167 164 161 153 149 139 136 147 147 141 139 136 133 130 132 134 132 124 121 119 119 120 118 116 103 90 106 100 96 93 105 112 75 76 67 40 5 354
144 119 111 133 150 153 159 162 174 176 176 180 205 207 134 140 152 145 145 151 152 151 152 154 145 144 143 135 137 141 141 136 138 143 141 140 141 140 138 139 137 130 123 118 110 115 103 100 110 82 86 99 95 95 87 99 77 68 84 27 16 334
128 124 127 133 146 154 160 164 173 179 179 202 202 142 140 139 141 143 143 144 148 153 152 149 148 147 147 150 155 151 148 149 145 145 143 141 141 142 144 150 146 141 134 123 121 125 111 101 59 113 91 96 107 92 76 72 72 44 60 54 355 342
82 84 71 105 136 155 163 169 176 180 190 203 140 131 128 135 136 139 143 149 152 149 152 153 152 150 154 158 156 154 149 151 148 143 150 149 147 149 149 155 153 123 133 146 150 147 138 114 128 78 116 124 104 85 79 70 56 44 51 24 13 322
110 95 74 68 118 141 161 177 173 176 192 172 134 141 141 138 141 145 152 154 154 154 150 146 152 156 158 162 159 154 155 149 152 148 157 151 153 155 157 157 157 163 162 151 155 155 151 144 127 158 185 150 105 85 83 66 51 39 12 20 253 265
95 104 105 74 94 138 151 169 162 180 184 141 148 145 146 145 147 154 157 154 154 153 147 147 148 154 161 164 174 172 166 161 163 159 158 161 159 158 159 163 171 164 163 165 149 155 154 148 157 189 223 188 139 123 81 64 49 19 348 343 321 301
96 104 118 119 48 122 142 151 131 141 132 149 139 140 140 147 151 152 151 157 154 151 159 161 164 165 166 171 166 161 162 164 161 156 159 166 162 163 162 164 168 166 165 170 160 143 147 158 177 191 210 220 184 177 120 92 41 346 359 11 279 303
125 135 137 146 155 117 123 120 111 129 134 138 144 142 145 152 163 162 166 162 160 165 171 171 167 166 168 176 172 166 166 175 175 170 175 175 174 166 174 174 177 179 179 174 147 151 143 180 197 201 197 206 178 169 147 145 208 193 144 263 258 100
127 149 144 149 130 101 102 105 120 140 142 147 148 149 152 158 157 153 155 160 157 170 175 174 172 175 172 171 177 181 173 177 179 180 169 136 161 191 175 176 186 189 181 163 167 150 150 185 200 204 187 192 177 158 155 184 195 173 165 273 23 88
130 133 122 123 61 96 106 104 109 126 138 145 154 155 157 157 155 157 167 169 173 169 169 172 171 173 170 172 174 161 112 55 110 72 157 169 173 183 237 202 195 185 162 155 166 169 170 190 181 178 180 175 161 160 162 180 161 134 125 77 89 105
94 105 106 94 50 78 91 107 111 119 137 152 161 165 159 153 157 166 165 168 184 180 179 174 173 177 168 172 169 167 158 121 127 143 144 153 160 165 166 160 150 148 157 153 151 183 156 144 157 169 167 168 163 161 167 159 139 109 101 110 102 56
100 114 143 116 94 92 89 110 101 122 140 136 160 154 152 164 164 177 185 184 179 172 176 172 168 164 169 173 170 174 167 158 138 135 153 157 159 157 152 146 145 148 151 147 143 150 149 163 169 167 170 163 166 167 163 152 130 115 106 111 108 90
143 110 113 123 117 120 126 138 205 59 74 95 126 138 153 176 179 178 173 172 171 171 169 169 171 176 174 176 178 182 178 173 168 157 151 166 176 168 159 157 159 160 163 161 163 163 161 167 172 173 167 168 169 165 163 151 129 125 115 101 76 106
107 112 121 137 172 174 161 166 274 47 63 91 138 157 175 182 188 176 163 174 178 173 182 183 181 180 187 185 191 194 191 193 184 171 156 150 152 160 168 175 174 170 170 173 171 173 173 173 171 169 168 169 170 166 164 149 124 114 101 110 123 112
120 132 158 163 167 163 171 191 63 100 93 106 113 146 157 176 169 152 151 160 168 182 188 185 181 184 183 187 198 200 201 196 189 171 172 174 175 175 173 172 179 184 179 174 169 172 176 175 171 167 171 172 167 167 155 133 113 107 49 61 94 134
59 70 87 129 147 158 142 55 115 148 149 147 143 160 179 173 176 170 174 172 178 176 182 180 184 182 185 194 200 204 208 200 187 186 192 189 178 169 166 168 176 160 181 172 173 182 181 175 169 171 172 169 170 166 151 126 163 154 163 145 170 155